DW2806 Weather Reports


time (UTC)temp
F
wind
direction
speed
knots
gust
knots
rain 1hr
in
rain 24hr
in
rain mn
in
humidity
%
barometer
mb
20260505223015 75 274 0.0 6.1 0.00 0.00 0.00 52 1025.7
20260505221515 75 275 0.9 5.2 0.00 0.00 0.00 51 1025.7
20260505220014 77 260 2.6 11.3 0.00 0.00 0.00 48 1025.7
20260505214517 78 268 0.9 7.8 0.00 0.00 0.00 48 1025.7
20260505213013 78 264 0.0 7.8 0.00 0.00 0.00 46 1025.7
20260505211513 79 279 2.6 11.3 0.00 0.00 0.00 45 1025.7
20260505210012 80 24 1.7 6.1 0.00 0.00 0.00 45 1025.7
20260505204511 80 180 2.6 7.0 0.00 0.00 0.00 43 1025.7
20260505203017 82 295 2.6 7.8 0.00 0.00 0.00 42 1025.7
20260505201510 82 229 2.6 7.8 0.00 0.00 0.00 42 1025.7
20260505200108 82 174 0.9 7.0 0.00 0.00 0.00 41 1025.7
20260505194509 82 275 0.0 7.0 0.00 0.00 0.00 44 1025.7
20260505193010 82 254 2.6 7.8 0.00 0.00 0.00 44 1025.7
20260505191507 83 264 2.6 8.7 0.00 0.00 0.00 43 1025.7
20260505190004 83 251 1.7 8.7 0.00 0.00 0.00 44 1025.7
20260505184504 85 268 1.7 4.3 0.00 0.00 0.00 43 1025.7
20260505183002 85 137 2.6 9.6 0.00 0.00 0.00 41 1025.7
20260505181600 85 327 1.7 10.4 0.00 0.00 0.00 38 1025.7
20260505180109 85 69 3.5 8.7 0.00 0.00 0.00 40 1025.7
20260505174605 85 290 1.7 8.7 0.00 0.00 0.00 39 1025.7
20260505173057 85 271 1.7 7.0 0.00 0.00 0.00 40 1025.7
20260505171553 84 315 0.0 5.2 0.00 0.00 0.00 39 1025.7
20260505170053 84 267 1.7 7.0 0.00 0.00 0.00 39 1025.7
20260505164551 84 320 0.0 5.2 0.00 0.00 0.00 38 1025.7
20260505163049 82 350 0.0 7.8 0.00 0.00 0.00 41 1025.7
20260505161545 81 273 0.9 6.1 0.00 0.00 0.00 45 1025.7
20260505153034 78 31 0.0 5.2 0.00 0.00 0.00 49 1025.7
20260505151532 76 277 0.0 4.3 0.00 0.00 0.00 53 1025.7
20260505124504 65 253 0.0 3.5 0.00 0.00 0.00 67 1025.7
20260505123001 64 325 0.0 1.7 0.00 0.00 0.00 68 1025.7
20260505121558 63 251 0.0 6.1 0.00 0.00 0.00 70 1025.7
20260505120053 61 271 0.0 0.9 0.00 0.00 0.00 74 1025.7
20260505114549 59 236 0.0 0.0 0.00 0.00 0.00 75 1025.7
20260505113045 58 235 0.0 3.5 0.00 0.00 0.00 78 1025.7
20260505111543 57 246 0.0 5.2 0.00 0.00 0.00 79 1025.7
20260505101537 53 195 0.0 0.0 0.00 0.00 0.00 82 1025.7
20260505100035 52 194 0.0 0.0 0.00 0.00 0.00 83 1025.7
20260505094533 51 187 0.0 0.0 0.00 0.00 0.00 83 1025.7
20260505093037 51 187 0.0 0.0 0.00 0.00 0.00 82 1025.7
20260505091531 51 187 0.0 0.0 0.00 0.00 0.00 82 1025.7
20260505090030 51 187 0.0 0.0 0.00 0.00 0.00 82 1025.7
20260505084529 51 187 0.0 0.0 0.00 0.00 0.00 81 1025.7
20260505083027 52 187 0.0 0.0 0.00 0.00 0.00 79 1025.7
20260505081523 52 187 0.0 0.0 0.00 0.00 0.00 79 1025.7
20260505080022 53 187 0.0 0.0 0.00 0.00 0.00 78 1025.7
20260505074521 53 187 0.0 0.0 0.00 0.00 0.00 78 1025.7
20260505073019 53 187 0.0 0.0 0.00 0.00 0.00 77 1025.7
20260505071517 53 187 0.0 0.0 0.00 0.00 0.00 76 1025.7
20260505070016 54 187 0.0 0.0 0.00 0.00 0.00 75 1025.7
20260505064513 54 187 0.0 0.0 0.00 0.00 0.00 74 1025.7
20260505063015 54 187 0.0 0.0 0.00 0.00 0.00 74 1025.7
20260505061511 55 187 0.0 0.0 0.00 0.00 0.00 73 1025.7
20260505060010 55 187 0.0 0.0 0.00 0.00 0.00 71 1025.7
20260505054507 55 187 0.0 4.3 0.00 0.00 0.00 71 1025.7
20260505053004 56 185 0.0 0.0 0.00 0.00 0.00 70 1025.7
20260505051510 56 185 0.0 3.5 0.00 0.00 0.00 69 1025.7
20260505041559 57 27 0.0 3.5 0.00 0.00 0.00 65 1025.7
20260505040054 57 160 0.0 4.3 0.00 0.00 0.00 64 1025.7
20260505034553 58 230 0.0 1.7 0.00 0.00 0.00 63 1025.7
20260505033053 58 169 0.0 3.5 0.00 0.00 0.00 62 1025.7
20260505031557 58 59 0.0 0.9 0.00 0.00 0.00 61 1025.7
20260505030052 58 19 0.0 0.0 0.00 0.00 0.00 60 1025.7
20260505024554 59 19 0.0 0.0 0.00 0.00 0.00 59 1025.7
20260505023051 60 21 0.0 0.0 0.00 0.00 0.00 57 1025.7
20260505021552 61 19 0.0 6.1 0.00 0.00 0.00 56 1025.7
20260505020059 61 64 0.0 0.0 0.00 0.00 0.00 55 1025.7
20260505014552 61 289 0.9 4.3 0.00 0.00 0.00 55 1025.7
20260505013049 62 135 0.0 5.2 0.00 0.00 0.00 54 1025.7
20260505011551 62 290 0.0 7.8 0.00 0.00 0.00 54 1025.7
20260505010107 63 52 0.0 4.3 0.00 0.00 0.00 52 1025.7
20260505004548 64 258 0.0 0.9 0.00 0.00 0.00 51 1025.7
20260505003054 64 263 0.0 5.2 0.00 0.00 0.00 50 1025.7
20260505001547 65 267 0.0 8.7 0.00 0.00 0.00 49 1025.7
20260505000048 66 314 0.0 1.7 0.00 0.00 0.00 46 1025.7
20260504234546 67 329 0.0 3.5 0.00 0.00 0.00 44 1025.7
20260504233102 68 210 0.0 4.3 0.00 0.00 0.00 41 1025.7
20260504231547 69 265 0.0 4.3 0.00 0.00 0.00 37 1025.7
20260504230053 70 29 0.0 0.0 0.00 0.00 0.00 37 1025.7
20260504224543 71 32 0.0 4.3 0.00 0.00 0.00 37 1025.7